Maksim Ismayilov

Jefe de ojeadores - AZAL
19 May 2028
Viernes
Continuar

Personalidad

Adaptabilidad (6) Ambición (18) Controversia (11) Lealtad (16) Presión (13) Profesionalismo (9) Deportividad (11) Temperamento (14)

Perfil

Estilo de dirección Democrático
Licencia Continental C
Determinación 3
Gestión de personas 2
Motivación 2
Disciplina 7
Satisfacción laboral
100%
Fatiga
0%
Cargo Jefe de ojeadores
Salario 27.5K p/s
Contrato 14.03.2029

Rendimiento

Comportamiento Bueno
Efectividad del entrenamiento
26%
Desarrollo de jugadores
35%
Prevención de lesiones
15%
Implementación táctica
20%

Actualmente siguiendo

86
Jugador Club Estado Habilidad Confianza Observado Última observación Último voto
Süleyman Damadayev Gabala Activo 86 / 89 55% 1 07.01.2028 -
David Veliz Güemes Activo 110 / 121 40% 1 05.01.2028 -
Franco Malagueño Colegiales Activo 94 / 100 40% 1 05.01.2028 -
Matías Viguet Maipú Activo 103 / 121 40% 1 04.01.2028 -
Ilja Ivarlak Spartaks Activo 68 / 75 66% 1 01.01.2028 Aprobar
Ilya Tishurov Osipovichi Activo 73 / 95 40% 1 31.08.2027 -
Alejandro Melo Temperley Activo 118 / 114 40% 1 31.08.2027 -
Lisandro Cabrera Maipú Activo 101 / 133 40% 2 30.08.2027 -
José Rondón Zulia Activo 82 / 104 40% 2 30.08.2027 -
Luciano Peraggini Maipú Activo 92 / 121 40% 1 29.08.2027 -
Aleksandar Lyubenov Dobrudzha Activo 85 / 81 40% 1 29.08.2027 -
Abdoulaye Mahamat US Moursal Activo 63 / 83 40% 1 28.08.2027 -
Abubakar Bonni Enyimba Activo 73 / 107 40% 1 28.08.2027 -
Joshua Oluwayemi Newport County Activo 108 / 117 40% 1 28.08.2027 -
Efraín Ustariz Beroe Activo 116 / 102 40% 1 28.08.2027 -
Renato Solís Estudiantes Activo 120 / 133 40% 2 27.08.2027 -
Gustavo Calderari Colegiales Activo 101 / 114 40% 1 27.08.2027 -
Marcelo Miño Ferro Carril Oeste Activo 108 / 129 40% 1 25.08.2027 -
Alexis Domínguez Chacarita Juniors Activo 125 / 125 40% 1 25.08.2027 -
Facundo Castelli Estudiantes Activo 102 / 99 40% 1 24.08.2027 -
Sergey Volkov Rodina Activo 95 / 125 40% 2 23.08.2027 -
Laureano Martínez Talleres Activo 112 / 94 40% 1 21.08.2027 -
Galin Grigorov Septemvri Activo 113 / 124 40% 1 21.08.2027 -
Cameron Dawson Bradford City Activo 111 / 91 40% 1 20.08.2027 -
Joaquín Bigo Gimnasia La Plata Activo 116 / 120 40% 1 19.08.2027 -
Carlos Guerreño Minsk Activo 96 / 97 40% 1 19.08.2027 -
Esteban da Silva Racing Activo 131 / 125 40% 1 18.08.2027 -
Franco Rivasseau Patronato Activo 118 / 89 40% 1 17.08.2027 -
Facundo Altamirano San Lorenzo Activo 117 / 112 40% 1 14.08.2027 -
Marius Adamonis Neftchi Activo 124 / 123 40% 5 12.08.2027 -
Emilio Di Fulvio Colegiales Activo 124 / 101 40% 1 12.08.2027 -
Enzo González Defensores Activo 114 / 90 40% 1 12.08.2027 -
Lautaro Gordillo Colegiales Activo 109 / 101 40% 2 11.08.2027 -
Lucas Pedraza Defensores Unidos Activo 104 / 117 40% 1 10.08.2027 -
Leonardo Bellini Pianese Activo 102 / 116 40% 1 10.08.2027 -
Lévi Ntumba Slavia Sofia Activo 119 / 123 40% 1 08.08.2027 -
Juan Pablo Noce Burgos Activo 103 / 128 40% 2 07.08.2027 -
Italo Espinoza San Martín Activo 105 / 121 40% 1 06.08.2027 -
José Miers 12 de Octubre Activo 85 / 102 40% 1 05.08.2027 -
Maxim Belov Dinamo Brest Activo 90 / 118 40% 1 03.08.2027 -
Álvaro Montero Boca Juniors Activo 139 / 112 40% 1 03.08.2027 -
Salim Hashimov Zira Activo 69 / 85 55% 1 02.08.2027 -
Charlie Brown Accrington Stanley Activo 75 / 90 40% 1 02.08.2027 -
Agustín Lastra Newell's Old Boys Activo 118 / 96 40% 1 01.08.2027 -
Pedro López Ceuta Activo 100 / 92 40% 1 01.08.2027 -
Tomás Bolzicco Chaco For Ever Activo 106 / 107 40% 1 31.07.2027 -
Lucas Bonelli Felgueiras Activo 123 / 94 40% 1 29.07.2027 -
Ignacio Chicco Aldosivi Activo 141 / 130 40% 1 26.07.2027 -
Johan Portilla Torpedo Moscow Activo 91 / 103 40% 1 24.07.2027 -
Afran Sadygov Inter Activo 96 / 98 40% 3 23.07.2027 -
Saliou Guindo MC Oran Activo 82 / 101 40% 1 23.07.2027 -
Neneca Santa Clara Activo 88 / 127 40% 1 20.07.2027 -
Beryly Lubala Vicenza Activo 90 / 123 40% 1 20.07.2027 -
Destiny Efosa Egharevba Picerno Activo 88 / 114 40% 1 17.07.2027 -
Kabiru Abdullahi Northampton Town Activo 78 / 110 40% 1 16.07.2027 -
Chinedu Onyinjekwu Bayelsa United Activo 81 / 86 40% 1 16.07.2027 -
Pedro González Cerro Largo Activo 124 / 106 40% 1 15.07.2027 -
Sheldon Dinesh Stockport County Activo 112 / 125 40% 1 14.07.2027 -
Kənan Feyziyev Sumgayit Activo 81 / 65 51% 1 12.07.2027 -
Bogdan Ovsyannikov Orenburg Activo 107 / 128 40% 1 11.07.2027 -
Danil Karpov Chernomorets Activo 86 / 107 40% 1 08.07.2027 -
Ilja Gruznov Khimik Activo 74 / 103 40% 1 06.07.2027 -
Petr Kudakovskiy Shinnik Activo 96 / 92 40% 1 04.07.2027 -
Nikita Chagrov Rotor Activo 118 / 84 40% 3 03.07.2027 -
Aydın Bayramov Zira Activo 88 / 114 40% 1 03.07.2027 -
Nahuel Yzaurralde Quilmes Activo 92 / 118 40% 3 29.06.2027 -
Alexandr Degtev Sochi Activo 89 / 113 40% 1 25.06.2027 -
Daniil Frolkin Fakel Activo 127 / 110 40% 1 24.06.2027 -
Kenan Pirić Neftchi Activo 116 / 97 40% 1 24.06.2027 -
Nicholas Ammeter Arouca Activo 97 / 121 40% 1 22.06.2027 -
Alexey Kuznetsov Leningradets Activo 110 / 112 40% 2 21.06.2027 -
Petr Kosarevskiy Sibir Activo 111 / 108 40% 1 20.06.2027 -
Javier Vallejos Central Córdoba SdE Activo 87 / 121 40% 1 19.06.2027 -
Daniel Bachmann Watford Activo 103 / 120 40% 2 18.06.2027 -
Vitaly Gudiev Akron Activo 117 / 112 40% 1 14.06.2027 -
Fabricio Hass Gijón Activo 93 / 106 40% 1 09.06.2027 -
Igor Gorbunov Arsenal Tula Activo 106 / 77 40% 1 31.01.2027 -
Đorđe Pantelić Spartak Kostroma Activo 118 / 86 40% 2 30.01.2027 -
David Karaev KAMAZ Activo 94 / 102 40% 1 30.01.2027 -
Géza Dávid Turi Grimsby Town Activo 90 / 80 40% 1 28.01.2027 -
Miguel Sousa Leixões Activo 111 / 130 40% 1 24.01.2027 -
Ilja Zhigulev Chernomorets Activo 102 / 100 40% 1 19.01.2027 -
Brahim Konaté Zira Activo 101 / 107 40% 1 11.01.2027 -
Islam Imamov SKA Khabarovsk Activo 100 / 75 40% 1 01.01.2027 -
Luca Fernández Barracas Central Activo 61 / 104 40% 1 24.08.2026 -
Zacarías López Iquique Activo 83 / 83 40% 1 01.08.2026 -